Location: Naalehu
(19.0640°N, 155.5860°W)
Time: 19:28:25
(UTC-10:00)

OTV 5 (USA 277) - Visible Passes

Search period start: 17 June 2019 00:00
Search period end: 27 June 2019 00:00
Orbit: 310 x 325 km, 54.5° (Epoch: 08 May)

Date Brightness Start Highest point End Pass type
(mag) Time Alt. Az. Time Alt. Az. Time Alt. Az.
20 Jun ? 20:38:59 10° WSW 20:41:26 30° NW 20:43:54 10° NNE visible
22 Jun ? 04:58:35 10° NNE 04:59:44 12° NE 05:00:52 10° ENE visible
22 Jun ? 19:33:55 10° SW 19:36:37 68° NW 19:39:20 10° NNE visible
23 Jun ? 05:11:53 10° NNW 05:14:31 47° NE 05:17:07 10° SE visible
23 Jun ? 19:49:38 10° W 19:51:23 15° NW 19:53:07 10° N visible
25 Jun ? 04:07:28 10° N 04:09:42 22° NE 04:11:55 10° ESE visible
